{"data":{"norad_id":60192,"epoch":"2026-09-20T06:33:00.785664Z","epoch_age_seconds":201097,"freshness":"STALE","line1":"1 60192U 24124K   26263.27292576  .00000583  00000+0  96702-5 0  9994","line2":"2 60192  53.1587 282.1697 0000931  81.0560 279.0563 15.69708809127091","mean_motion":15.69708809,"eccentricity":9.31e-5,"inclination_deg":53.1587,"raan_deg":282.1697,"arg_perigee_deg":81.056,"mean_anomaly_deg":279.0563,"bstar":9.6702e-6,"rev_number":12709,"period_min":91.73675982091,"perigee_km":359.10286317558,"apogee_km":360.35745404051,"semimajor_km":6737.867158608,"source":"CELESTRAK","updated_at":"2026-09-22T09:00:49.183491Z"}}